Weather Roundup
Issued by NWS Springfield, MO

Home | Current Version | Previous Version | Text Only | Print | Product List | Glossary On
Versions: 1 2 3 4 5 6 7 8 9 10 11 12 13 14 15 16 17 18 19 20 21 22 23 24 25 26 27 28 29 30 31 32 33 34 35 36 37 38 39 40 41 42 43 44 45 46 47 48 49 50
000
NZUS99 KSGF 130907
HRRSGF

HOURLY WEATHER
NATIONAL WEATHER SERVICE SPRINGFIELD MO
300 AM CST WED DEC 13 2017

......SGF CWA......

CITY           SKY/WX    TMP DP  RH WIND       PRES   REMARKS
SPRINGFIELD    CLOUDY    30  16  56 S12       29.93F WCI  20
JOPLIN         CLEAR     39  25  57 S15G25    29.94F WCI  31
WEST PLAINS    CLOUDY    29  10  45 S6        29.99F WCI  23
ROLLA          CLOUDY    29  14  53 S14       29.92F WCI  18
OSAGE BEACH    CLEAR     27  16  63 S7        29.93F WCI  19
BRANSON        PTCLDY    36  21  55 SW7       29.97F WCI  30

......SURROUNDING SGF CWA......

CITY           SKY/WX    TMP DP  RH WIND       PRES   REMARKS
CHANUTE        CLEAR     35  27  72 S14       29.90F WCI  26
PARSONS        CLEAR     34  28  79 S6        29.93F WCI  29
COFFEYVILLE    CLEAR     36  28  73 S12       29.93F WCI  28
EMPORIA        CLEAR     38  26  62 S10       29.82F WCI  31
GROVE OK       CLEAR     34  27  75 S7        29.99F WCI  28
ROGERS AR      CLOUDY    35  22  58 S14       29.99F WCI  26
SILOAM SPRINGS CLOUDY    31  17  56 S7        30.01F WCI  24
HARRISON AR    CLOUDY    29  15  56 SE3       29.99F
NEAR YELLVILLE CLOUDY    26  19  74 E3        30.03F

......KANSAS AND MISSOURI......

CITY           SKY/WX    TMP DP  RH WIND       PRES   REMARKS
KANSAS CTY INT CLEAR     36  27  69 SW14      29.77F WCI  27
DOWNTOWN KC    CLEAR     36  27  69 SW8       29.80F WCI  30
COLUMBIA       CLEAR     29  16  58 S10       29.87F WCI  20
SEDALIA        CLEAR     35  24  64 S17       29.85F WCI  25
ST JOSEPH      CLEAR     31  26  82 S8        29.75F WCI  23
ST LOUIS       NOT AVBL
SPIRIT OF STL  CLEAR     26  12  55 CALM      29.92F
KIRKSVILLE     CLOUDY    30  25  81 SW15G23   29.76F WCI  19
WICHITA        CLEAR     31  25  78 S8        29.87F WCI  23
TOPEKA         CLEAR     39  28  64 SW7       29.79F WCI  34
OLATHE         CLEAR     33  27  78 S12       29.80F WCI  24

......TENNESSEE......

CITY           SKY/WX    TMP DP  RH WIND       PRES   REMARKS
MEMPHIS        CLOUDY    30  23  75 CALM      30.10F
NASHVILLE      CLOUDY    23  14  68 S5        30.08F WCI  17

......ARKANSAS.......

CITY           SKY/WX    TMP DP  RH WIND       PRES   REMARKS
FAYETTEVILLE   CLOUDY    28  19  69 S7        30.02F WCI  21
FT SMITH       CLOUDY    30  21  69 E5        30.08F WCI  25
LITTLE ROCK    CLOUDY    29  23  78 SW5       30.12F WCI  24

......OKLAHOMA.......

CITY           SKY/WX    TMP DP  RH WIND       PRES   REMARKS
TULSA          CLEAR     37  27  67 S9        29.98F WCI  30
PONCA CITY     CLEAR     37  26  64 S6        29.92F WCI  32
MCALESTER      PTCLDY    32  25  75 SW6       30.05F WCI  26
OKLAHOMA CITY  CLEAR     34  25  69 S10       29.97F WCI  26

......IOWA............

CITY           SKY/WX    TMP DP  RH WIND       PRES   REMARKS
DES MOINES     CLOUDY    34  24  67 S14       29.60F WCI  25
QUAD CITIES    CLOUDY    30  16  56 S8        29.73F WCI  22

......ILLINOIS........

CITY           SKY/WX    TMP DP  RH WIND       PRES   REMARKS
QUINCY         CLEAR     26  16  65 S12       29.81F WCI  16
CHICAGO        CLOUDY    22  11  62 S9        29.80F WCI  12



USA.gov is the U.S. government's official web portal to all federal, state and local government web resources and services.